CZ-4C R/B (52258 NORAD) Tracking and Keplerian Element Data

This shows tracking and keplerian element data for the satellite.

Feedback or suggestion? Click here.




ElementValue
Catalog52258
NameCZ-4C R/B
Epoch Orbit344
Epoch Day128.89727323
Epoch Year2022
RAAN71.5773
Inclination98.1663
Eccentricity0.0139148
Argument of Perigee346.8173
Mean Anonmoly12.9417
Mean Motion14.90733028
Decay Rate2.155E-05
L11 52258U 22039B 22128.89727323 .00002155 00000+0 18870-3 0 9993
L22 52258 98.1663 71.5773 0139148 346.8173 12.9417 14.90733028 3447



Live tracking and technical data element details for CZ-4C R/B (NORAD 52258). CZ-4C R/B can be tracked NOW for your location showing map with azimuth and elevation plus other details from your city location.







IsCatalogInMostPopularTable: catalog: 52258, numindb: 26
Update: records affected: 1



GetName: 52258 CZ-4C R/B

Hit Count: updated at: Sun, 28 May 2023 07:32:50 GMT